Location: Anton
(37.3520°N, 87.3947°W)
Time: 05:53:11
(UTC+00:00)

BlueWalker 3 - Visible Passes

Search period start: 04 December 2023 00:00
Search period end: 14 December 2023 00:00
Orbit: 489 x 503 km, 53.2° (Epoch: 03 December)

Date Brightness Start Highest point End Pass type
(mag) Time Alt. Az. Time Alt. Az. Time Alt. Az.
04 Dec 2.2 11:12:25 36° NNW 11:13:45 60° NE 11:17:31 10° ESE visible
05 Dec 2.2 10:51:00 59° NNE 10:51:05 59° NE 10:54:51 10° ESE visible
06 Dec 3.3 10:29:39 37° E 10:29:39 37° E 10:32:09 10° ESE visible
06 Dec 3.9 12:04:14 10° W 12:06:22 15° SW 12:08:31 10° SSW visible
07 Dec 4.6 10:08:22 18° ESE 10:08:22 18° ESE 10:09:26 10° ESE visible
07 Dec 3.8 11:42:57 14° WSW 11:43:40 15° SW 11:45:51 10° SSW visible
08 Dec 4.0 11:21:43 14° SW 11:21:43 14° SW 11:23:12 10° SSW visible
11 Dec 4.1 23:54:14 10° SSE 23:55:33 13° SE 23:55:33 13° SE visible
12 Dec 4.0 23:31:31 10° SSE 23:33:17 13° SE 23:34:13 12° ESE visible
13 Dec 4.3 01:07:22 10° SW 01:08:48 21° WSW 01:08:48 21° WSW visible
13 Dec 4.1 23:08:47 10° SSE 23:10:29 13° SE 23:12:11 10° E visible
